Location: Cossonay
(46.5833°N, 6.4167°E)
Time: 21:16:32
(UTC+00:00)

STARLINK-1257 - Pass Details

Date: 02 October 2020
Orbit: 549 x 550 km, 53.0° (Epoch: 22 October)

Event Time Altitude Azimuth Distance (km) Brightness Sun altitude
Exits shadow 03:14:53 - 156° (SSE) 1,863 6.3 -24.4°
Reaches altitude 10° 03:15:10 10° 152° (SSE) 1,814 6.3 -24.3°
Maximum altitude 03:16:52 12° 128° (SE) 1,673 6.4 -24.1°
Drops below altitude 10° 03:18:34 10° 103° (ESE) 1,820 7.0 -23.8°
Sets 03:22:00 0° 73° (ENE) 2,720 8.6 -23.2°
